Dewpoint
56 56 56 56 56 56 56 56 56 56 56 56 56 56 56 56 56 56 56 56 56 56 56 56 56 56 57 57 58 58 57 54 52 50 48 50 53 62 71 66 64 65 73 54 44 46 44 46 48 50 52 55 56 54 54 57 59 65 63 60 58 58 59 62 61 63 62 62 65 66 67 65 64 65 67 68 65 66 63 62 55 56 56 56 57 59 62 63
56 56 56 55 56 55 55 56 55 55 55 56 56 56 56 56 56 56 56 56 56 56 56 56 56 56 56 57 57 58 56 54 53 51 49 52 64 64 66 72 66 70 68 41 45 48 44 48 51 53 54 54 54 53 54 52 57 61 62 60 57 62 61 64 63 65 63 63 65 67 66 67 64 66 67 65 62 62 61 58 54 55 55 56 57 58 61 62
56 56 56 55 55 55 55 55 55 55 55 56 56 56 56 56 56 56 56 56 56 56 56 56 56 56 57 57 57 58 56 53 52 51 51 65 63 66 68 71 68 75 47 39 45 50 47 50 54 56 54 50 52 53 52 57 57 67 62 59 61 62 63 64 65 65 67 66 65 66 66 66 66 66 67 64 61 63 60 57 55 55 55 56 56 58 59 60
55 55 55 55 55 55 55 55 55 55 55 56 56 56 56 56 56 56 56 56 56 56 56 56 56 56 56 57 58 56 54 52 49 47 51 68 66 65 68 69 70 70 41 41 45 51 50 51 54 53 48 47 49 52 50 55 60 63 62 62 60 61 62 64 67 65 67 67 66 66 66 65 66 66 65 62 60 61 62 53 55 55 55 56 56 57 58 59
55 55 55 55 55 55 55 55 55 55 55 55 55 56 55 55 55 56 56 56 56 56 56 56 56 56 56 58 58 56 52 48 45 51 60 71 68 66 68 67 71 51 41 39 43 47 51 51 51 45 43 44 48 51 50 57 58 60 58 60 60 62 62 64 68 67 66 68 66 66 65 65 68 67 65 63 62 60 62 55 56 56 56 56 56 58 58 59
55 55 54 55 55 54 55 55 55 55 55 55 55 55 55 55 55 56 56 56 56 55 56 56 56 56 57 58 56 52 47 31 36 49 64 70 68 68 67 67 69 43 35 36 39 44 49 51 48 41 40 41 43 49 50 56 56 61 62 59 60 60 63 65 65 66 67 66 66 65 66 67 66 66 66 64 65 67 66 56 56 56 56 57 57 58 58 59
55 55 55 54 54 55 55 55 55 55 55 55 55 55 55 55 55 55 55 55 55 55 56 56 57 56 57 58 55 51 46 42 41 46 70 70 69 68 68 68 66 44 31 33 37 43 52 52 44 40 39 40 43 46 49 59 57 59 62 61 62 61 62 64 64 68 66 65 65 67 69 66 65 63 67 64 67 67 65 58 57 57 57 57 57 58 58 59
55 54 54 54 54 55 55 55 55 55 55 55 55 55 55 55 55 55 55 55 55 56 57 57 57 57 57 54 49 48 45 40 37 62 69 68 65 66 62 52 49 42 32 33 37 44 51 48 40 40 38 38 42 46 48 57 58 57 58 59 59 64 63 64 65 65 67 67 67 68 66 66 67 65 65 66 68 64 66 59 57 57 57 57 57 57 58 58
55 55 55 55 55 54 55 55 55 55 55 55 55 55 55 55 55 55 55 55 55 56 57 57 57 56 57 55 42 33 28 42 49 61 65 59 54 58 48 44 43 36 34 34 38 46 52 43 39 39 37 37 39 44 46 54 58 59 60 57 60 61 63 63 64 67 67 67 67 65 66 67 67 68 67 68 68 70 66 56 56 56 56 57 57 57 58 57
55 55 55 55 55 54 54 54 54 55 55 55 55 55 55 55 54 54 55 55 56 57 57 57 58 57 54 52 46 41 38 48 51 55 57 53 51 52 46 38 37 32 35 38 43 48 52 46 36 38 38 37 39 40 41 51 57 57 56 59 59 62 63 63 64 65 66 66 66 64 65 66 68 67 60 68 68 66 62 55 56 56 56 56 57 57 57 56
55 55 54 54 55 55 55 55 55 54 55 55 55 55 55 55 55 55 55 56 56 57 57 58 57 56 51 49 44 34 46 43 47 53 51 48 48 45 40 30 31 30 39 46 49 53 55 55 37 37 38 38 41 40 40 50 57 56 55 58 62 64 63 64 65 66 66 65 66 66 66 67 67 67 61 67 69 69 59 54 55 54 54 55 56 56 57 56
55 55 55 55 55 54 55 55 55 55 55 55 55 55 54 55 55 55 55 56 57 57 58 57 57 54 53 49 43 38 41 37 40 37 39 38 37 33 32 29 29 35 44 51 53 55 54 47 35 33 35 38 38 39 42 54 55 54 56 60 60 62 62 64 64 65 66 65 66 67 64 63 64 63 68 68 68 67 59 53 54 53 53 54 55 55 56 55
55 55 55 55 55 55 55 55 55 55 55 55 55 55 55 55 55 55 56 56 57 58 58 57 57 55 51 45 45 42 40 38 32 33 32 32 27 26 30 30 29 40 48 52 52 47 44 37 33 31 32 32 33 37 39 45 51 52 53 56 59 59 61 64 65 66 65 65 66 64 55 59 64 66 67 68 67 62 56 53 52 52 52 52 52 53 54 53
56 56 55 55 55 55 55 55 55 55 55 55 55 54 54 54 55 56 57 57 59 59 58 58 55 54 51 42 39 42 35 33 33 32 32 32 28 29 34 34 35 40 45 48 49 44 32 30 30 30 30 29 29 33 33 39 50 49 54 55 58 58 58 63 63 65 63 65 65 63 56 59 64 66 68 68 68 59 53 53 51 51 51 51 51 51 52 52
56 56 55 55 55 55 55 56 56 55 55 54 54 54 54 54 56 57 58 59 59 58 58 58 56 53 47 36 37 41 71 47 40 35 31 29 30 32 35 36 34 37 42 46 43 38 34 32 30 29 27 32 31 32 33 36 45 47 47 44 54 55 57 60 63 63 62 64 65 60 55 58 64 66 68 68 68 68 53 54 50 50 49 49 49 50 50 51
56 56 56 56 56 55 55 55 55 55 55 54 54 54 55 55 56 57 58 59 58 58 57 53 52 53 47 34 40 55 45 40 41 37 32 32 30 33 36 39 36 36 40 41 39 34 32 31 27 30 28 29 29 28 34 39 43 45 46 46 50 55 57 57 61 62 64 63 65 61 57 61 64 66 67 67 69 69 60 53 50 49 49 48 49 50 50 50
56 56 56 56 56 56 55 55 55 55 55 54 54 54 55 56 57 57 58 58 58 57 53 45 44 49 39 37 39 37 35 35 36 40 39 38 31 34 37 40 39 39 39 36 35 34 33 29 31 31 30 26 26 31 35 38 40 42 44 44 48 54 55 56 60 65 64 62 61 61 59 59 62 65 65 67 68 69 64 53 51 50 49 49 49 50 50 50
55 55 56 56 55 56 55 55 55 55 54 54 54 53 53 55 57 56 56 56 55 53 50 49 44 43 40 41 33 37 37 33 33 38 41 40 39 38 37 36 34 35 34 33 34 31 32 28 27 24 25 25 25 26 37 37 37 39 41 41 48 55 52 55 57 61 63 63 61 60 58 60 63 65 66 66 69 67 64 64 52 51 50 49 49 50 50 50
56 55 55 55 56 55 55 55 54 54 54 54 54 55 56 57 55 49 47 43 48 47 41 38 44 42 24 35 32 35 36 33 34 39 36 38 37 36 36 34 33 33 31 31 31 31 31 28 25 26 21 23 24 27 34 38 37 41 40 39 50 51 54 54 58 61 62 61 60 58 57 59 62 64 67 68 66 65 64 64 63 59 51 49 50 50 51 50
56 56 56 55 55 55 54 55 54 53 53 52 50 51 54 50 46 44 46 44 40 37 35 32 41 42 39 32 27 30 34 34 33 39 33 35 31 34 34 33 31 31 29 27 29 29 29 25 23 20 21 22 24 28 32 36 36 34 37 38 49 49 52 55 56 60 61 59 59 59 59 59 62 64 65 67 66 64 64 62 64 63 59 50 50 50 51 51
56 55 55 55 55 55 55 54 54 53 53 51 50 48 37 42 27 26 39 42 43 40 36 33 33 35 30 26 31 32 26 32 34 36 34 35 36 32 31 31 29 28 27 26 25 28 27 24 19 19 20 20 22 26 30 32 33 32 30 37 46 48 50 53 55 59 59 57 58 59 58 59 61 63 65 66 64 62 64 63 63 64 65 61 50 50 51 52
56 55 55 55 54 54 54 54 53 53 52 51 50 44 39 38 37 28 27 24 31 42 41 40 38 33 32 29 24 30 32 31 32 32 33 35 35 29 28 27 26 25 26 25 25 24 23 22 19 16 16 17 16 17 21 23 27 30 29 36 44 47 50 53 55 57 60 60 56 58 58 59 61 63 65 65 65 66 64 63 66 64 65 64 60 51 52 51
55 55 55 55 54 54 53 53 53 52 50 50 46 42 38 37 36 31 27 26 24 24 29 40 36 25 24 24 28 35 32 31 30 29 32 33 34 31 26 24 25 23 23 23 22 22 21 20 21 19 14 13 12 13 15 18 23 25 30 32 38 50 49 51 54 57 57 56 57 58 57 59 62 62 63 63 66 65 65 66 67 68 67 66 63 59 53 51
55 55 55 54 54 53 53 52 51 51 50 49 42 37 37 38 32 28 28 25 23 22 19 25 27 22 21 23 30 34 32 31 30 28 35 32 31 31 26 24 24 23 20 21 21 21 19 19 20 20 17 13 12 12 14 16 19 26 30 32 40 48 48 51 53 56 56 56 58 57 56 57 60 60 61 63 64 66 67 66 65 67 69 67 65 66 65 52
55 55 55 55 54 53 52 51 46 46 47 46 42 40 38 39 40 31 24 23 23 21 21 19 23 18 22 31 27 26 30 27 26 29 33 30 29 28 27 27 26 24 21 19 19 20 19 19 19 19 18 16 16 15 14 13 21 26 28 29 33 43 48 49 50 51 52 54 56 53 49 51 57 59 60 60 63 64 66 65 64 66 67 67 63 64 64 62
55 55 55 54 54 53 51 48 44 40 38 40 40 38 38 34 38 39 29 28 21 20 19 17 17 15 19 26 26 24 24 20 25 29 33 30 35 29 28 29 26 23 22 20 16 18 18 19 18 18 17 16 16 16 15 15 19 25 29 34 35 42 47 47 45 48 48 49 52 51 49 48 52 51 55 57 58 62 64 65 64 65 65 67 65 64 64 59
55 55 54 54 53 52 48 36 49 45 38 34 36 33 30 30 50 34 34 25 15 18 16 10 10 17 21 24 26 23 15 15 24 31 33 34 30 32 27 27 25 24 23 21 24 15 18 18 18 17 16 15 16 16 20 20 28 32 32 33 37 45 45 45 45 47 47 48 51 51 50 48 50 54 55 57 59 61 62 63 64 64 65 66 67 64 66 64
55 54 53 53 52 52 48 50 47 39 36 35 32 31 32 48 44 37 34 27 18 15 7 10 9 24 19 23 24 16 15 19 16 30 33 30 31 28 28 25 24 22 23 22 17 19 17 17 18 16 15 14 16 20 32 32 32 32 33 33 34 43 41 43 44 44 44 46 47 47 50 49 50 56 60 59 58 59 60 62 64 63 65 66 67 66 66 65
54 54 53 53 52 51 51 49 47 42 35 33 31 32 32 38 34 33 29 25 15 13 14 7 12 20 18 18 18 16 13 15 12 30 31 28 28 27 25 26 24 22 21 21 19 17 17 17 17 17 14 14 26 29 31 33 31 31 32 31 29 35 36 42 51 47 52 46 45 46 48 48 49 55 57 60 57 59 61 62 64 65 65 66 66 66 66 66
54 53 53 52 50 51 50 51 49 46 43 42 35 35 32 34 31 28 23 22 11 10 13 5 8 9 15 16 16 15 12 12 20 28 25 23 25 26 25 26 21 20 20 21 19 18 17 27 30 17 15 16 28 30 32 32 30 32 30 29 27 31 34 34 37 40 41 35 39 46 46 48 46 53 55 55 56 59 62 64 65 66 66 67 69 67 66 66
53 52 52 51 49 49 45 41 44 44 46 45 38 33 35 37 30 28 20 12 10 13 14 11 5 11 12 14 14 13 11 11 25 26 20 17 19 24 27 19 23 21 22 21 20 20 20 18 19 19 21 27 28 26 28 29 29 26 26 23 29 33 35 36 39 41 35 34 38 41 45 48 46 50 57 57 56 57 60 62 63 65 66 66 67 66 65 66
51 51 51 51 50 51 41 34 37 39 41 37 36 35 35 31 30 26 18 14 12 12 10 12 8 8 10 12 11 10 10 10 19 16 14 15 20 20 19 18 26 28 22 23 20 21 19 19 22 24 33 28 30 27 26 26 24 22 25 27 28 35 33 33 34 32 31 31 37 46 47 48 50 52 52 54 56 57 59 61 65 65 65 65 66 66 67 68
51 50 50 51 52 50 48 45 44 44 42 36 36 37 37 33 29 26 19 17 12 13 11 12 8 9 9 7 7 9 10 10 14 14 15 15 14 15 16 16 20 23 25 23 19 17 19 22 24 26 30 32 29 25 26 26 28 27 27 34 26 32 27 29 30 31 33 32 40 48 49 48 51 54 55 54 55 57 60 62 64 65 65 66 66 65 68 70
50 50 50 51 51 49 46 49 46 46 41 45 45 34 37 33 24 26 20 14 8 9 9 8 10 10 9 5 5 7 7 8 14 13 14 16 11 11 11 14 17 20 18 20 17 17 20 22 24 26 26 31 29 28 25 28 28 27 31 28 33 31 29 28 28 27 27 33 44 46 46 47 48 51 60 58 58 60 61 63 66 66 67 67 67 68 68 69
50 50 51 51 50 50 49 47 45 44 43 39 35 37 30 31 26 23 22 16 11 8 7 8 6 7 9 6 5 5 4 9 13 13 12 11 8 7 8 11 16 18 20 19 21 23 18 23 25 27 29 27 27 29 28 25 22 27 29 29 28 25 32 25 27 27 26 31 42 46 48 49 50 54 58 59 60 61 62 63 64 65 67 66 67 68 68 69
50 56 52 51 49 48 49 48 46 44 41 40 36 37 28 23 18 16 10 9 7 5 6 5 4 4 6 5 5 1 4 7 10 11 11 10 9 10 11 14 15 16 19 28 21 26 20 19 23 24 28 26 25 27 28 27 25 26 25 25 24 25 24 31 36 26 25 42 42 48 47 49 52 53 56 60 60 59 60 62 63 64 65 66 66 67 65 68
47 47 45 46 46 46 48 47 46 44 43 37 35 32 29 24 20 14 17 9 8 8 7 8 10 9 5 4 9 8 5 8 11 10 16 11 14 17 13 18 19 19 19 20 26 19 19 18 20 23 19 20 22 23 25 25 23 20 23 22 19 20 24 34 28 30 29 35 43 45 45 46 48 46 56 57 58 59 60 59 60 62 64 63 64 66 68 68
50 46 45 43 42 44 47 49 45 44 37 34 32 32 24 18 9 9 9 10 8 8 10 8 9 6 17 13 11 13 13 10 10 10 11 12 16 16 18 18 20 20 20 19 21 21 19 18 18 22 19 17 23 23 20 23 25 19 19 19 19 25 21 29 31 19 26 39 42 48 48 47 50 49 54 56 56 56 56 57 57 59 62 62 63 66 67 67
51 47 36 38 26 32 39 44 47 46 37 35 31 30 12 9 2 7 11 12 13 13 13 12 15 15 17 15 18 16 15 11 12 14 17 15 21 18 16 17 18 20 20 20 19 22 24 18 17 20 18 15 20 16 21 18 19 19 18 17 20 22 21 30 24 29 32 41 40 42 46 45 50 54 56 55 56 54 54 55 56 57 59 61 61 63 65 65
48 44 36 35 27 38 43 40 35 36 38 33 29 22 17 15 8 7 12 15 12 14 24 14 18 17 17 20 21 18 16 13 12 22 17 25 15 16 16 17 17 19 19 20 19 22 20 22 17 14 15 15 15 19 16 19 20 18 17 17 18 23 21 20 22 18 33 40 40 41 41 47 50 55 55 55 53 53 54 54 55 56 57 57 60 62 64 67
40 41 41 42 34 39 36 35 35 38 41 31 22 19 18 15 15 8 12 12 14 18 15 15 15 17 28 25 36 25 16 14 16 15 15 15 16 20 17 17 16 16 18 19 22 20 30 25 28 19 19 13 15 15 14 14 15 14 16 17 17 18 18 17 24 19 20 40 39 40 42 48 53 57 55 54 51 53 54 54 55 55 55 56 57 60 62 63
45 34 34 41 40 32 32 30 31 43 31 26 25 20 13 23 15 14 9 14 18 16 18 18 20 16 22 20 22 22 20 24 22 18 17 16 17 17 18 19 18 19 19 23 24 22 30 31 36 22 15 12 13 14 15 22 19 19 27 17 16 17 24 25 23 34 42 44 43 44 44 47 54 57 57 56 50 53 53 54 54 54 54 55 56 58 60 61
39 36 41 37 34 28 29 28 40 40 40 32 26 26 14 17 14 13 15 16 18 15 20 20 17 19 23 24 21 20 22 21 22 18 17 18 16 18 18 17 18 21 23 24 28 24 43 31 31 28 28 12 13 13 18 19 18 15 18 18 18 18 19 20 28 37 42 44 42 43 43 48 53 59 58 58 50 52 52 53 53 53 53 54 55 56 57 58
39 35 37 27 28 32 30 36 40 35 34 30 30 21 17 16 18 17 17 18 17 16 15 20 19 16 19 18 21 17 22 26 24 24 23 18 18 18 16 15 17 20 20 24 35 33 27 34 32 27 25 18 19 23 19 18 15 19 15 19 19 20 18 24 29 39 41 43 42 42 41 47 53 57 61 59 52 51 50 51 52 52 53 54 54 55 55 56
44 40 41 27 35 27 26 28 38 39 29 28 14 11 15 12 19 18 16 16 17 17 17 16 17 16 19 19 18 20 18 21 25 24 16 16 16 19 15 16 17 19 26 37 51 34 34 35 37 28 28 23 20 17 20 23 18 16 16 16 17 17 22 26 28 38 34 43 46 43 44 50 53 58 55 56 54 47 48 49 50 51 52 53 54 54 54 55
38 41 43 44 24 24 26 32 30 30 31 28 32 23 16 17 17 17 15 15 15 17 17 17 15 14 16 18 20 19 19 19 20 31 30 24 20 16 17 14 17 20 43 52 39 25 38 38 40 37 30 27 30 36 33 32 26 15 13 15 16 18 20 28 35 37 34 42 45 45 47 49 50 51 54 57 49 47 47 48 49 50 52 53 53 54 54 55
45 41 46 45 34 32 29 28 25 23 33 28 39 28 28 22 13 14 15 25 17 16 15 16 15 24 18 17 20 19 20 18 24 30 23 18 21 17 18 23 15 28 49 40 33 26 42 34 34 39 36 30 18 17 15 20 15 14 14 15 15 17 20 23 28 40 46 44 41 47 48 47 47 50 52 46 46 47 48 48 49 49 50 51 52 53 55 54
42 38 34 43 29 32 40 28 21 21 16 25 39 21 19 18 25 31 16 16 14 18 29 35 15 24 30 32 33 34 29 30 35 30 36 29 33 30 23 15 12 26 33 15 24 30 35 28 24 23 26 24 18 18 16 14 15 15 15 13 15 17 22 20 28 40 45 42 43 47 47 45 45 45 45 45 46 45 46 48 49 50 50 51 50 50 51 52
41 40 36 34 33 29 31 22 14 19 18 20 35 23 19 19 19 20 18 22 18 18 26 36 25 23 30 28 39 43 38 33 35 38 38 34 26 31 27 29 17 15 16 21 23 34 31 29 30 21 20 21 20 15 15 13 14 14 13 14 12 10 14 23 33 41 45 46 47 47 46 44 44 44 45 46 47 48 48 47 48 48 49 50 50 50 51 52
45 45 42 40 42 38 26 22 21 25 21 37 41 28 22 18 16 16 19 21 27 19 19 25 21 19 21 26 38 41 41 36 36 35 33 29 25 35 31 28 25 22 19 20 21 35 26 34 28 22 27 21 16 17 19 17 14 12 12 13 13 12 11 23 41 45 47 45 46 45 46 47 49 48 48 48 48 49 49 47 47 48 48 49 49 49 50 51
45 51 55 48 41 37 33 28 33 37 39 38 38 20 24 18 16 17 17 21 22 23 26 21 22 25 28 32 35 31 34 41 39 34 32 29 30 27 29 33 21 34 29 28 29 33 26 30 26 29 27 24 18 15 17 16 14 14 13 15 17 13 17 17 29 46 45 46 47 46 46 46 48 48 48 48 48 49 49 49 48 47 48 49 49 49 50 50
47 50 53 52 47 45 37 26 31 40 42 39 31 24 24 23 25 27 30 23 22 25 25 24 26 30 29 29 28 25 24 23 23 23 22 21 20 25 23 23 21 28 31 29 30 28 32 28 26 28 23 24 18 13 11 12 14 15 21 11 22 19 24 16 40 45 46 46 45 44 45 47 48 49 47 48 48 48 48 48 47 47 49 49 49 49 49 49